owner,sensor,date,latitude,longitude,vertical_datum,wind_speed,wind_to_direction,wind_speed_of_gust,qcFlag 
TCOON,ioos:station:TCOON:146:1,2017-04-01T00:30:00Z,28.1324,-97.0345,0.0,5.3,197.0,6.9,'1111122,1111122,1111122' 
TCOON,ioos:station:TCOON:146:1,2017-04-01T01:30:00Z,28.1324,-97.0345,0.0,5.5,200.0,7.2,'1111122,1111122,1111122' 
TCOON,ioos:station:TCOON:146:1,2017-04-01T02:30:00Z,28.1324,-97.0345,0.0,6.4,201.0,7.9,'1111122,1111122,1111122' 
TCOON,ioos:station:TCOON:146:1,2017-04-01T03:30:00Z,28.1324,-97.0345,0.0,6.5,213.0,8.3,'1111122,1111122,1111122' 
TCOON,ioos:station:TCOON:146:1,2017-04-01T04:30:00Z,28.1324,-97.0345,0.0,5.9,204.0,7.6,'1111122,1111122,1111122' 
TCOON,ioos:station:TCOON:146:1,2017-04-01T05:30:00Z,28.1324,-97.0345,0.0,5.8,206.0,7.2,'1111122,1111122,1111122' 
TCOON,ioos:station:TCOON:146:1,2017-04-01T06:30:00Z,28.1324,-97.0345,0.0,6.1,209.0,8.3,'1111122,1111122,1111122' 
TCOON,ioos:station:TCOON:146:1,2017-04-01T07:30:00Z,28.1324,-97.0345,0.0,5.7,212.0,7.2,'1111122,1111122,1111122' 
TCOON,ioos:station:TCOON:146:1,2017-04-01T08:30:00Z,28.1324,-97.0345,0.0,6.0,211.0,7.7,'1111122,1111122,1111122' 
TCOON,ioos:station:TCOON:146:1,2017-04-01T09:30:00Z,28.1324,-97.0345,0.0,5.5,211.0,6.6,'1111122,1111122,1111122' 
TCOON,ioos:station:TCOON:146:1,2017-04-01T10:30:00Z,28.1324,-97.0345,0.0,5.6,215.0,6.7,'1111122,1111122,1111122' 
TCOON,ioos:station:TCOON:146:1,2017-04-01T11:30:00Z,28.1324,-97.0345,0.0,5.0,199.0,6.4,'1111122,1111122,1111122' 
TCOON,ioos:station:TCOON:146:1,2017-04-01T12:30:00Z,28.1324,-97.0345,0.0,5.0,203.0,6.5,'1111122,1111122,1111122' 
TCOON,ioos:station:TCOON:146:1,2017-04-01T13:30:00Z,28.1324,-97.0345,0.0,5.6,201.0,7.5,'1111122,1111122,1111122' 
TCOON,ioos:station:TCOON:146:1,2017-04-01T14:30:00Z,28.1324,-97.0345,0.0,5.9,204.0,8.2,'1111122,1111122,1111122' 
TCOON,ioos:station:TCOON:146:1,2017-04-01T15:30:00Z,28.1324,-97.0345,0.0,5.8,209.0,7.0,'1111122,1111122,1111122' 
TCOON,ioos:station:TCOON:146:1,2017-04-01T16:30:00Z,28.1324,-97.0345,0.0,5.7,202.0,7.1,'1111122,1111122,1111122' 
TCOON,ioos:station:TCOON:146:1,2017-04-01T17:30:00Z,28.1324,-97.0345,0.0,5.1,205.0,6.7,'1111122,1111122,1111122' 
TCOON,ioos:station:TCOON:146:1,2017-04-01T18:30:00Z,28.1324,-97.0345,0.0,5.2,197.0,6.9,'1111122,1111122,1111122' 
TCOON,ioos:station:TCOON:146:1,2017-04-01T19:30:00Z,28.1324,-97.0345,0.0,5.5,194.0,7.1,'1111122,1111122,1111122' 
TCOON,ioos:station:TCOON:146:1,2017-04-01T20:30:00Z,28.1324,-97.0345,0.0,4.9,191.0,6.3,'1111122,1111122,1111122' 
TCOON,ioos:station:TCOON:146:1,2017-04-01T21:30:00Z,28.1324,-97.0345,0.0,6.3,185.0,7.4,'1111122,1111122,1111122' 
TCOON,ioos:station:TCOON:146:1,2017-04-01T22:30:00Z,28.1324,-97.0345,0.0,6.5,181.0,8.0,'1111122,1111122,1111122' 
TCOON,ioos:station:TCOON:146:1,2017-04-01T23:30:00Z,28.1324,-97.0345,0.0,6.9,178.0,8.2,'1111122,1111122,1111122' 
TCOON,ioos:station:TCOON:146:1,2017-04-02T00:30:00Z,28.1324,-97.0345,0.0,6.2,172.0,7.6,'1111122,1111122,1111122' 
TCOON,ioos:station:TCOON:146:1,2017-04-02T01:30:00Z,28.1324,-97.0345,0.0,6.2,167.0,7.3,'1111122,1111122,1111122' 
TCOON,ioos:station:TCOON:146:1,2017-04-02T02:30:00Z,28.1324,-97.0345,0.0,5.8,171.0,7.2,'1111122,1111122,1111122' 
TCOON,ioos:station:TCOON:146:1,2017-04-02T03:30:00Z,28.1324,-97.0345,0.0,5.0,171.0,6.4,'1111122,1111122,1111122' 
TCOON,ioos:station:TCOON:146:1,2017-04-02T04:30:00Z,28.1324,-97.0345,0.0,5.3,168.0,6.8,'1111122,1111122,1111122' 
TCOON,ioos:station:TCOON:146:1,2017-04-02T05:30:00Z,28.1324,-97.0345,0.0,5.4,171.0,6.5,'1111122,1111122,1111122' 
TCOON,ioos:station:TCOON:146:1,2017-04-02T06:30:00Z,28.1324,-97.0345,0.0,4.7,185.0,5.9,'1111122,1111122,1111122' 
TCOON,ioos:station:TCOON:146:1,2017-04-02T07:30:00Z,28.1324,-97.0345,0.0,5.2,192.0,6.5,'1111122,1111122,1111122' 
TCOON,ioos:station:TCOON:146:1,2017-04-02T08:30:00Z,28.1324,-97.0345,0.0,4.6,199.0,5.9,'1111122,1111122,1111122' 
TCOON,ioos:station:TCOON:146:1,2017-04-02T09:30:00Z,28.1324,-97.0345,0.0,4.4,196.0,5.6,'1111122,1111122,1111122' 
TCOON,ioos:station:TCOON:146:1,2017-04-02T10:30:00Z,28.1324,-97.0345,0.0,4.4,198.0,5.9,'1111122,1111122,1111122' 
TCOON,ioos:station:TCOON:146:1,2017-04-02T11:30:00Z,28.1324,-97.0345,0.0,4.3,197.0,5.4,'1111122,1111122,1111122' 
TCOON,ioos:station:TCOON:146:1,2017-04-02T12:30:00Z,28.1324,-97.0345,0.0,4.8,199.0,6.1,'1111122,1111122,1111122' 
TCOON,ioos:station:TCOON:146:1,2017-04-02T13:30:00Z,28.1324,-97.0345,0.0,5.2,206.0,6.8,'1111122,1111122,1111122' 
TCOON,ioos:station:TCOON:146:1,2017-04-02T14:30:00Z,28.1324,-97.0345,0.0,4.9,218.0,6.0,'1111122,1111122,1111122' 
TCOON,ioos:station:TCOON:146:1,2017-04-02T15:30:00Z,28.1324,-97.0345,0.0,4.6,223.0,5.7,'1111122,1111122,1111122' 
TCOON,ioos:station:TCOON:146:1,2017-04-02T16:30:00Z,28.1324,-97.0345,0.0,3.6,237.0,4.8,'1111122,1111122,1111122' 
TCOON,ioos:station:TCOON:146:1,2017-04-02T17:30:00Z,28.1324,-97.0345,0.0,4.4,243.0,6.2,'1111122,1111122,1111122' 
TCOON,ioos:station:TCOON:146:1,2017-04-02T18:30:00Z,28.1324,-97.0345,0.0,5.0,223.0,6.1,'1111122,1111122,1111122' 
TCOON,ioos:station:TCOON:146:1,2017-04-02T19:30:00Z,28.1324,-97.0345,0.0,4.5,225.0,5.4,'1111122,1111122,1111122' 
TCOON,ioos:station:TCOON:146:1,2017-04-02T20:30:00Z,28.1324,-97.0345,0.0,4.6,225.0,5.6,'1111122,1111122,1111122' 
TCOON,ioos:station:TCOON:146:1,2017-04-02T21:30:00Z,28.1324,-97.0345,0.0,4.6,226.0,5.7,'1111122,1111122,1111122' 
TCOON,ioos:station:TCOON:146:1,2017-04-02T22:30:00Z,28.1324,-97.0345,0.0,3.3,233.0,3.9,'1111122,1111122,1111122' 
TCOON,ioos:station:TCOON:146:1,2017-04-02T23:30:00Z,28.1324,-97.0345,0.0,3.4,225.0,4.5,'1111122,1111122,1111122' 
TCOON,ioos:station:TCOON:146:1,2017-04-03T00:30:00Z,28.1324,-97.0345,0.0,3.1,230.0,3.9,'1111122,1111122,1111122' 
TCOON,ioos:station:TCOON:146:1,2017-04-03T01:30:00Z,28.1324,-97.0345,0.0,1.8,292.0,2.4,'1111122,1111122,1111122' 
TCOON,ioos:station:TCOON:146:1,2017-04-03T02:30:00Z,28.1324,-97.0345,0.0,3.1,35.0,4.0,'1111122,1111122,1111122' 
TCOON,ioos:station:TCOON:146:1,2017-04-03T03:30:00Z,28.1324,-97.0345,0.0,4.2,28.0,5.1,'1111122,1111122,1111122' 
TCOON,ioos:station:TCOON:146:1,2017-04-03T04:30:00Z,28.1324,-97.0345,0.0,4.0,26.0,5.0,'1111122,1111122,1111122' 
TCOON,ioos:station:TCOON:146:1,2017-04-03T05:30:00Z,28.1324,-97.0345,0.0,4.4,27.0,5.1,'1111122,1111122,1111122' 
TCOON,ioos:station:TCOON:146:1,2017-04-03T06:30:00Z,28.1324,-97.0345,0.0,4.4,38.0,5.6,'1111122,1111122,1111122' 
TCOON,ioos:station:TCOON:146:1,2017-04-03T07:30:00Z,28.1324,-97.0345,0.0,4.2,45.0,5.0,'1111122,1111122,1111122' 
TCOON,ioos:station:TCOON:146:1,2017-04-03T08:30:00Z,28.1324,-97.0345,0.0,5.5,49.0,6.4,'1111122,1111122,1111122' 
TCOON,ioos:station:TCOON:146:1,2017-04-03T09:30:00Z,28.1324,-97.0345,0.0,5.7,48.0,6.7,'1111122,1111122,1111122' 
TCOON,ioos:station:TCOON:146:1,2017-04-03T10:30:00Z,28.1324,-97.0345,0.0,4.4,51.0,5.5,'1111122,1111122,1111122' 
TCOON,ioos:station:TCOON:146:1,2017-04-03T11:30:00Z,28.1324,-97.0345,0.0,4.3,51.0,5.3,'1111122,1111122,1111122' 
TCOON,ioos:station:TCOON:146:1,2017-04-03T13:30:00Z,28.1324,-97.0345,0.0,1.2,262.0,2.1,'1111122,1111122,1111122' 
TCOON,ioos:station:TCOON:146:1,2017-04-03T14:30:00Z,28.1324,-97.0345,0.0,1.6,318.0,2.3,'1111122,1111122,1111122' 
TCOON,ioos:station:TCOON:146:1,2017-04-03T15:30:00Z,28.1324,-97.0345,0.0,3.7,304.0,4.3,'1111122,1111122,1111122' 
TCOON,ioos:station:TCOON:146:1,2017-04-03T16:30:00Z,28.1324,-97.0345,0.0,3.2,301.0,4.2,'1111122,1111122,1111122' 
TCOON,ioos:station:TCOON:146:1,2017-04-03T17:30:00Z,28.1324,-97.0345,0.0,3.5,309.0,4.4,'1111122,1111122,1111122' 
TCOON,ioos:station:TCOON:146:1,2017-04-03T18:30:00Z,28.1324,-97.0345,0.0,3.8,299.0,4.4,'1111122,1111122,1111122' 
TCOON,ioos:station:TCOON:146:1,2017-04-03T19:30:00Z,28.1324,-97.0345,0.0,3.8,214.0,4.6,'1111122,1111122,1111122' 
TCOON,ioos:station:TCOON:146:1,2017-04-03T20:30:00Z,28.1324,-97.0345,0.0,5.5,234.0,6.7,'1111122,1111122,1111122' 
TCOON,ioos:station:TCOON:146:1,2017-04-03T21:30:00Z,28.1324,-97.0345,0.0,5.0,228.0,6.1,'1111122,1111122,1111122' 
TCOON,ioos:station:TCOON:146:1,2017-04-03T22:30:00Z,28.1324,-97.0345,0.0,5.2,227.0,6.0,'1111122,1111122,1111122' 
TCOON,ioos:station:TCOON:146:1,2017-04-04T00:30:00Z,28.1324,-97.0345,0.0,4.5,233.0,5.6,'1111122,1111122,1111122' 
TCOON,ioos:station:TCOON:146:1,2017-04-04T01:30:00Z,28.1324,-97.0345,0.0,4.5,235.0,5.8,'1111122,1111122,1111122' 
TCOON,ioos:station:TCOON:146:1,2017-04-04T02:30:00Z,28.1324,-97.0345,0.0,5.6,228.0,7.0,'1111122,1111122,1111122' 
TCOON,ioos:station:TCOON:146:1,2017-04-04T03:30:00Z,28.1324,-97.0345,0.0,5.9,239.0,7.6,'1111122,1111122,1111122' 
TCOON,ioos:station:TCOON:146:1,2017-04-04T04:30:00Z,28.1324,-97.0345,0.0,5.8,234.0,6.8,'1111122,1111122,1111122' 
TCOON,ioos:station:TCOON:146:1,2017-04-04T05:30:00Z,28.1324,-97.0345,0.0,6.0,240.0,7.4,'1111122,1111122,1111122' 
TCOON,ioos:station:TCOON:146:1,2017-04-04T06:30:00Z,28.1324,-97.0345,0.0,5.8,244.0,7.1,'1111122,1111122,1111122' 
TCOON,ioos:station:TCOON:146:1,2017-04-04T07:30:00Z,28.1324,-97.0345,0.0,5.3,244.0,6.9,'1111122,1111122,1111122' 
TCOON,ioos:station:TCOON:146:1,2017-04-04T08:30:00Z,28.1324,-97.0345,0.0,3.8,246.0,4.7,'1111122,1111122,1111122' 
TCOON,ioos:station:TCOON:146:1,2017-04-04T09:30:00Z,28.1324,-97.0345,0.0,3.9,266.0,5.2,'1111122,1111122,1111122' 
TCOON,ioos:station:TCOON:146:1,2017-04-04T10:30:00Z,28.1324,-97.0345,0.0,3.4,261.0,4.1,'1111122,1111122,1111122' 
TCOON,ioos:station:TCOON:146:1,2017-04-04T11:30:00Z,28.1324,-97.0345,0.0,3.3,254.0,4.1,'1111122,1111122,1111122' 
TCOON,ioos:station:TCOON:146:1,2017-04-04T12:30:00Z,28.1324,-97.0345,0.0,3.7,254.0,4.8,'1111122,1111122,1111122' 
TCOON,ioos:station:TCOON:146:1,2017-04-04T13:30:00Z,28.1324,-97.0345,0.0,3.5,249.0,4.4,'1111122,1111122,1111122' 
TCOON,ioos:station:TCOON:146:1,2017-04-04T14:30:00Z,28.1324,-97.0345,0.0,4.3,245.0,5.6,'1111122,1111122,1111122' 
TCOON,ioos:station:TCOON:146:1,2017-04-04T15:30:00Z,28.1324,-97.0345,0.0,5.2,236.0,6.2,'1111122,1111122,1111122' 
TCOON,ioos:station:TCOON:146:1,2017-04-04T16:30:00Z,28.1324,-97.0345,0.0,5.4,233.0,6.6,'1111122,1111122,1111122' 
TCOON,ioos:station:TCOON:146:1,2017-04-04T17:30:00Z,28.1324,-97.0345,0.0,5.5,224.0,6.4,'1111122,1111122,1111122' 
TCOON,ioos:station:TCOON:146:1,2017-04-04T18:30:00Z,28.1324,-97.0345,0.0,5.4,229.0,6.4,'1111122,1111122,1111122' 
TCOON,ioos:station:TCOON:146:1,2017-04-04T19:30:00Z,28.1324,-97.0345,0.0,5.1,230.0,6.1,'1111122,1111122,1111122' 
TCOON,ioos:station:TCOON:146:1,2017-04-04T20:30:00Z,28.1324,-97.0345,0.0,4.3,220.0,5.0,'1111122,1111122,1111122' 
TCOON,ioos:station:TCOON:146:1,2017-04-04T21:30:00Z,28.1324,-97.0345,0.0,4.9,222.0,5.5,'1111122,1111122,1111122' 
TCOON,ioos:station:TCOON:146:1,2017-04-04T22:30:00Z,28.1324,-97.0345,0.0,4.9,210.0,5.8,'1111122,1111122,1111122' 
TCOON,ioos:station:TCOON:146:1,2017-04-06T14:30:00Z,28.1324,-97.0345,0.0,0.6,89.0,1.1,'1111122,1111122,1111122' 
TCOON,ioos:station:TCOON:146:1,2017-04-06T15:30:00Z,28.1324,-97.0345,0.0,0.6,61.0,1.1,'1111122,1111122,1111122' 
TCOON,ioos:station:TCOON:146:1,2017-04-06T16:30:00Z,28.1324,-97.0345,0.0,2.6,229.0,3.3,'1111122,1111122,1111122' 
TCOON,ioos:station:TCOON:146:1,2017-04-06T17:30:00Z,28.1324,-97.0345,0.0,3.0,215.0,3.7,'1111122,1111122,1111122' 
TCOON,ioos:station:TCOON:146:1,2017-04-06T18:30:00Z,28.1324,-97.0345,0.0,2.8,196.0,3.4,'1111122,1111122,1111122' 
TCOON,ioos:station:TCOON:146:1,2017-04-06T19:30:00Z,28.1324,-97.0345,0.0,3.1,204.0,3.8,'1111122,1111122,1111122' 
TCOON,ioos:station:TCOON:146:1,2017-04-06T20:30:00Z,28.1324,-97.0345,0.0,3.2,210.0,4.4,'1111122,1111122,1111122' 
TCOON,ioos:station:TCOON:146:1,2017-04-06T21:30:00Z,28.1324,-97.0345,0.0,3.3,212.0,4.3,'1111122,1111122,1111122' 
TCOON,ioos:station:TCOON:146:1,2017-04-06T22:30:00Z,28.1324,-97.0345,0.0,3.0,218.0,3.8,'1111122,1111122,1111122' 
TCOON,ioos:station:TCOON:146:1,2017-04-06T23:30:00Z,28.1324,-97.0345,0.0,3.1,212.0,3.7,'1111122,1111122,1111122' 
TCOON,ioos:station:TCOON:146:1,2017-04-07T00:30:00Z,28.1324,-97.0345,0.0,3.8,212.0,4.7,'1111122,1111122,1111122' 
TCOON,ioos:station:TCOON:146:1,2017-04-07T01:30:00Z,28.1324,-97.0345,0.0,3.9,231.0,4.6,'1111122,1111122,1111122' 
TCOON,ioos:station:TCOON:146:1,2017-04-07T02:30:00Z,28.1324,-97.0345,0.0,3.3,230.0,4.0,'1111122,1111122,1111122' 
TCOON,ioos:station:TCOON:146:1,2017-04-07T03:30:00Z,28.1324,-97.0345,0.0,3.2,236.0,3.8,'1111122,1111122,1111122' 
TCOON,ioos:station:TCOON:146:1,2017-04-07T04:30:00Z,28.1324,-97.0345,0.0,3.6,231.0,4.4,'1111122,1111122,1111122' 
TCOON,ioos:station:TCOON:146:1,2017-04-07T05:30:00Z,28.1324,-97.0345,0.0,3.4,237.0,4.3,'1111122,1111122,1111122' 
TCOON,ioos:station:TCOON:146:1,2017-04-07T06:30:00Z,28.1324,-97.0345,0.0,3.6,234.0,4.3,'1111122,1111122,1111122' 
TCOON,ioos:station:TCOON:146:1,2017-04-07T07:30:00Z,28.1324,-97.0345,0.0,3.8,228.0,4.4,'1111122,1111122,1111122' 
TCOON,ioos:station:TCOON:146:1,2017-04-07T08:30:00Z,28.1324,-97.0345,0.0,3.7,224.0,4.4,'1111122,1111122,1111122' 
TCOON,ioos:station:TCOON:146:1,2017-04-07T09:30:00Z,28.1324,-97.0345,0.0,3.8,226.0,4.4,'1111122,1111122,1111122' 
TCOON,ioos:station:TCOON:146:1,2017-04-07T10:30:00Z,28.1324,-97.0345,0.0,3.6,220.0,4.3,'1111122,1111122,1111122' 
TCOON,ioos:station:TCOON:146:1,2017-04-07T11:30:00Z,28.1324,-97.0345,0.0,3.6,202.0,4.3,'1111122,1111122,1111122' 
TCOON,ioos:station:TCOON:146:1,2017-04-07T12:30:00Z,28.1324,-97.0345,0.0,3.2,200.0,4.0,'1111122,1111122,1111122' 
TCOON,ioos:station:TCOON:146:1,2017-04-07T13:30:00Z,28.1324,-97.0345,0.0,3.3,204.0,4.0,'1111122,1111122,1111122' 
TCOON,ioos:station:TCOON:146:1,2017-04-07T14:30:00Z,28.1324,-97.0345,0.0,3.1,202.0,3.7,'1111122,1111122,1111122' 
TCOON,ioos:station:TCOON:146:1,2017-04-07T15:30:00Z,28.1324,-97.0345,0.0,3.5,219.0,4.3,'1111122,1111122,1111122' 
TCOON,ioos:station:TCOON:146:1,2017-04-07T16:30:00Z,28.1324,-97.0345,0.0,3.7,206.0,4.7,'1111122,1111122,1111122' 
TCOON,ioos:station:TCOON:146:1,2017-04-07T17:30:00Z,28.1324,-97.0345,0.0,3.7,207.0,4.8,'1111122,1111122,1111122' 
TCOON,ioos:station:TCOON:146:1,2017-04-07T18:30:00Z,28.1324,-97.0345,0.0,3.8,203.0,4.9,'1111122,1111122,1111122' 
TCOON,ioos:station:TCOON:146:1,2017-04-07T19:30:00Z,28.1324,-97.0345,0.0,4.7,211.0,5.6,'1111122,1111122,1111122' 
TCOON,ioos:station:TCOON:146:1,2017-04-07T20:30:00Z,28.1324,-97.0345,0.0,4.4,202.0,5.3,'1111122,1111122,1111122' 
TCOON,ioos:station:TCOON:146:1,2017-04-07T21:30:00Z,28.1324,-97.0345,0.0,4.8,214.0,6.1,'1111122,1111122,1111122' 
TCOON,ioos:station:TCOON:146:1,2017-04-07T22:30:00Z,28.1324,-97.0345,0.0,4.9,212.0,6.3,'1111122,1111122,1111122' 
TCOON,ioos:station:TCOON:146:1,2017-04-07T23:30:00Z,28.1324,-97.0345,0.0,5.2,221.0,6.0,'1111122,1111122,1111122' 
TCOON,ioos:station:TCOON:146:1,2017-04-08T00:30:00Z,28.1324,-97.0345,0.0,4.9,217.0,6.0,'1111122,1111122,1111122' 
TCOON,ioos:station:TCOON:146:1,2017-04-08T01:30:00Z,28.1324,-97.0345,0.0,4.8,216.0,5.8,'1111122,1111122,1111122' 
TCOON,ioos:station:TCOON:146:1,2017-04-08T02:30:00Z,28.1324,-97.0345,0.0,5.1,221.0,6.5,'1111122,1111122,1111122' 
TCOON,ioos:station:TCOON:146:1,2017-04-08T03:30:00Z,28.1324,-97.0345,0.0,4.9,223.0,5.9,'1111122,1111122,1111122' 
TCOON,ioos:station:TCOON:146:1,2017-04-08T04:30:00Z,28.1324,-97.0345,0.0,5.4,232.0,6.7,'1111122,1111122,1111122' 
TCOON,ioos:station:TCOON:146:1,2017-04-08T05:30:00Z,28.1324,-97.0345,0.0,5.7,229.0,6.8,'1111122,1111122,1111122' 
TCOON,ioos:station:TCOON:146:1,2017-04-08T06:30:00Z,28.1324,-97.0345,0.0,5.5,235.0,7.2,'1111122,1111122,1111122' 
TCOON,ioos:station:TCOON:146:1,2017-04-08T07:30:00Z,28.1324,-97.0345,0.0,5.4,243.0,6.8,'1111122,1111122,1111122' 
TCOON,ioos:station:TCOON:146:1,2017-04-08T08:30:00Z,28.1324,-97.0345,0.0,5.0,243.0,6.6,'1111122,1111122,1111122' 
TCOON,ioos:station:TCOON:146:1,2017-04-08T09:30:00Z,28.1324,-97.0345,0.0,5.5,242.0,6.7,'1111122,1111122,1111122' 
TCOON,ioos:station:TCOON:146:1,2017-04-08T10:30:00Z,28.1324,-97.0345,0.0,4.8,240.0,6.3,'1111122,1111122,1111122' 
TCOON,ioos:station:TCOON:146:1,2017-04-08T11:30:00Z,28.1324,-97.0345,0.0,4.6,236.0,5.4,'1111122,1111122,1111122' 
TCOON,ioos:station:TCOON:146:1,2017-04-08T12:30:00Z,28.1324,-97.0345,0.0,4.7,238.0,5.7,'1111122,1111122,1111122' 
TCOON,ioos:station:TCOON:146:1,2017-04-08T13:30:00Z,28.1324,-97.0345,0.0,5.2,231.0,6.3,'1111122,1111122,1111122' 
TCOON,ioos:station:TCOON:146:1,2017-04-08T14:30:00Z,28.1324,-97.0345,0.0,5.6,232.0,7.0,'1111122,1111122,1111122' 
TCOON,ioos:station:TCOON:146:1,2017-04-08T15:30:00Z,28.1324,-97.0345,0.0,6.2,231.0,7.7,'1111122,1111122,1111122' 
TCOON,ioos:station:TCOON:146:1,2017-04-08T16:30:00Z,28.1324,-97.0345,0.0,6.1,230.0,7.2,'1111122,1111122,1111122' 
TCOON,ioos:station:TCOON:146:1,2017-04-08T17:30:00Z,28.1324,-97.0345,0.0,5.9,229.0,7.0,'1111122,1111122,1111122' 
TCOON,ioos:station:TCOON:146:1,2017-04-08T18:30:00Z,28.1324,-97.0345,0.0,5.8,224.0,7.0,'1111122,1111122,1111122' 
TCOON,ioos:station:TCOON:146:1,2017-04-08T19:30:00Z,28.1324,-97.0345,0.0,5.4,221.0,6.4,'1111122,1111122,1111122' 
TCOON,ioos:station:TCOON:146:1,2017-04-08T20:30:00Z,28.1324,-97.0345,0.0,5.8,217.0,6.9,'1111122,1111122,1111122' 
TCOON,ioos:station:TCOON:146:1,2017-04-08T21:30:00Z,28.1324,-97.0345,0.0,6.2,215.0,7.4,'1111122,1111122,1111122' 
TCOON,ioos:station:TCOON:146:1,2017-04-08T22:30:00Z,28.1324,-97.0345,0.0,6.5,213.0,7.7,'1111122,1111122,1111122' 
TCOON,ioos:station:TCOON:146:1,2017-04-08T23:30:00Z,28.1324,-97.0345,0.0,6.3,214.0,7.7,'1111122,1111122,1111122' 
TCOON,ioos:station:TCOON:146:1,2017-04-09T00:30:00Z,28.1324,-97.0345,0.0,6.3,216.0,7.5,'1111122,1111122,1111122' 
TCOON,ioos:station:TCOON:146:1,2017-04-09T01:30:00Z,28.1324,-97.0345,0.0,6.6,221.0,7.9,'1111122,1111122,1111122' 
TCOON,ioos:station:TCOON:146:1,2017-04-09T02:30:00Z,28.1324,-97.0345,0.0,6.6,223.0,7.9,'1111122,1111122,1111122' 
TCOON,ioos:station:TCOON:146:1,2017-04-09T03:30:00Z,28.1324,-97.0345,0.0,7.1,225.0,8.9,'1111122,1111122,1111122' 
TCOON,ioos:station:TCOON:146:1,2017-04-09T04:30:00Z,28.1324,-97.0345,0.0,6.6,225.0,8.0,'1111122,1111122,1111122' 
TCOON,ioos:station:TCOON:146:1,2017-04-09T05:30:00Z,28.1324,-97.0345,0.0,6.6,228.0,7.9,'1111122,1111122,1111122' 
TCOON,ioos:station:TCOON:146:1,2017-04-09T06:30:00Z,28.1324,-97.0345,0.0,6.9,233.0,8.5,'1111122,1111122,1111122' 
TCOON,ioos:station:TCOON:146:1,2017-04-09T07:30:00Z,28.1324,-97.0345,0.0,6.4,233.0,7.5,'1111122,1111122,1111122' 
TCOON,ioos:station:TCOON:146:1,2017-04-09T08:30:00Z,28.1324,-97.0345,0.0,5.7,233.0,7.5,'1111122,1111122,1111122' 
TCOON,ioos:station:TCOON:146:1,2017-04-09T09:30:00Z,28.1324,-97.0345,0.0,5.7,227.0,7.3,'1111122,1111122,1111122' 
TCOON,ioos:station:TCOON:146:1,2017-04-09T10:30:00Z,28.1324,-97.0345,0.0,5.6,224.0,6.8,'1111122,1111122,1111122' 
TCOON,ioos:station:TCOON:146:1,2017-04-09T11:30:00Z,28.1324,-97.0345,0.0,5.3,222.0,6.5,'1111122,1111122,1111122' 
TCOON,ioos:station:TCOON:146:1,2017-04-09T12:30:00Z,28.1324,-97.0345,0.0,5.2,232.0,6.3,'1111122,1111122,1111122' 
TCOON,ioos:station:TCOON:146:1,2017-04-09T13:30:00Z,28.1324,-97.0345,0.0,5.1,231.0,6.0,'1111122,1111122,1111122' 
TCOON,ioos:station:TCOON:146:1,2017-04-09T14:30:00Z,28.1324,-97.0345,0.0,5.4,225.0,6.3,'1111122,1111122,1111122' 
TCOON,ioos:station:TCOON:146:1,2017-04-09T15:30:00Z,28.1324,-97.0345,0.0,5.6,229.0,6.4,'1111122,1111122,1111122' 
TCOON,ioos:station:TCOON:146:1,2017-04-09T16:30:00Z,28.1324,-97.0345,0.0,5.4,223.0,6.4,'1111122,1111122,1111122' 
TCOON,ioos:station:TCOON:146:1,2017-04-09T17:30:00Z,28.1324,-97.0345,0.0,5.3,216.0,6.5,'1111122,1111122,1111122' 
TCOON,ioos:station:TCOON:146:1,2017-04-09T18:30:00Z,28.1324,-97.0345,0.0,5.8,217.0,7.2,'1111122,1111122,1111122' 
TCOON,ioos:station:TCOON:146:1,2017-04-09T19:30:00Z,28.1324,-97.0345,0.0,5.9,214.0,7.4,'1111122,1111122,1111122' 
TCOON,ioos:station:TCOON:146:1,2017-04-09T20:30:00Z,28.1324,-97.0345,0.0,6.0,213.0,7.3,'1111122,1111122,1111122' 
TCOON,ioos:station:TCOON:146:1,2017-04-09T21:30:00Z,28.1324,-97.0345,0.0,6.5,210.0,8.0,'1111122,1111122,1111122' 
TCOON,ioos:station:TCOON:146:1,2017-04-09T22:30:00Z,28.1324,-97.0345,0.0,6.2,207.0,7.7,'1111122,1111122,1111122' 
TCOON,ioos:station:TCOON:146:1,2017-04-09T23:30:00Z,28.1324,-97.0345,0.0,6.0,203.0,7.7,'1111122,1111122,1111122' 
TCOON,ioos:station:TCOON:146:1,2017-04-10T00:30:00Z,28.1324,-97.0345,0.0,5.6,206.0,7.5,'1111122,1111122,1111122' 
TCOON,ioos:station:TCOON:146:1,2017-04-10T01:30:00Z,28.1324,-97.0345,0.0,5.5,208.0,7.4,'1111122,1111122,1111122' 
TCOON,ioos:station:TCOON:146:1,2017-04-10T02:30:00Z,28.1324,-97.0345,0.0,6.2,207.0,7.6,'1111122,1111122,1111122' 
TCOON,ioos:station:TCOON:146:1,2017-04-10T03:30:00Z,28.1324,-97.0345,0.0,6.2,206.0,7.5,'1111122,1111122,1111122' 
TCOON,ioos:station:TCOON:146:1,2017-04-10T04:30:00Z,28.1324,-97.0345,0.0,5.9,206.0,7.6,'1111122,1111122,1111122' 
TCOON,ioos:station:TCOON:146:1,2017-04-10T05:30:00Z,28.1324,-97.0345,0.0,6.0,206.0,7.7,'1111122,1111122,1111122' 
TCOON,ioos:station:TCOON:146:1,2017-04-10T06:30:00Z,28.1324,-97.0345,0.0,5.7,208.0,7.4,'1111122,1111122,1111122' 
TCOON,ioos:station:TCOON:146:1,2017-04-10T07:30:00Z,28.1324,-97.0345,0.0,4.7,213.0,5.9,'1111122,1111122,1111122' 
TCOON,ioos:station:TCOON:146:1,2017-04-10T08:30:00Z,28.1324,-97.0345,0.0,4.8,216.0,5.8,'1111122,1111122,1111122' 
TCOON,ioos:station:TCOON:146:1,2017-04-10T09:30:00Z,28.1324,-97.0345,0.0,5.2,218.0,6.6,'1111122,1111122,1111122' 
TCOON,ioos:station:TCOON:146:1,2017-04-10T10:30:00Z,28.1324,-97.0345,0.0,5.0,215.0,6.0,'1111122,1111122,1111122' 
TCOON,ioos:station:TCOON:146:1,2017-04-10T11:30:00Z,28.1324,-97.0345,0.0,4.9,209.0,5.9,'1111122,1111122,1111122' 
TCOON,ioos:station:TCOON:146:1,2017-04-10T12:30:00Z,28.1324,-97.0345,0.0,4.5,210.0,5.6,'1111122,1111122,1111122' 
TCOON,ioos:station:TCOON:146:1,2017-04-10T13:30:00Z,28.1324,-97.0345,0.0,4.5,210.0,5.5,'1111122,1111122,1111122' 
TCOON,ioos:station:TCOON:146:1,2017-04-10T14:30:00Z,28.1324,-97.0345,0.0,4.2,217.0,5.2,'1111122,1111122,1111122' 
TCOON,ioos:station:TCOON:146:1,2017-04-10T15:30:00Z,28.1324,-97.0345,0.0,4.4,209.0,5.3,'1111122,1111122,1111122' 
TCOON,ioos:station:TCOON:146:1,2017-04-10T16:30:00Z,28.1324,-97.0345,0.0,4.2,211.0,5.1,'1111122,1111122,1111122' 
TCOON,ioos:station:TCOON:146:1,2017-04-10T17:30:00Z,28.1324,-97.0345,0.0,4.3,209.0,5.7,'1111122,1111122,1111122' 
TCOON,ioos:station:TCOON:146:1,2017-04-10T18:30:00Z,28.1324,-97.0345,0.0,4.6,206.0,5.9,'1111122,1111122,1111122' 
TCOON,ioos:station:TCOON:146:1,2017-04-10T20:30:00Z,28.1324,-97.0345,0.0,5.0,200.0,6.2,'1111122,1111122,1111122' 
TCOON,ioos:station:TCOON:146:1,2017-04-10T21:30:00Z,28.1324,-97.0345,0.0,4.9,192.0,5.8,'1111122,1111122,1111122' 
TCOON,ioos:station:TCOON:146:1,2017-04-10T22:30:00Z,28.1324,-97.0345,0.0,5.5,187.0,7.3,'1111122,1111122,1111122' 
TCOON,ioos:station:TCOON:146:1,2017-04-10T23:30:00Z,28.1324,-97.0345,0.0,5.6,187.0,6.7,'1111122,1111122,1111122' 
TCOON,ioos:station:TCOON:146:1,2017-04-11T00:30:00Z,28.1324,-97.0345,0.0,5.3,190.0,6.6,'1111122,1111122,1111122' 
TCOON,ioos:station:TCOON:146:1,2017-04-11T01:30:00Z,28.1324,-97.0345,0.0,4.6,196.0,5.8,'1111122,1111122,1111122' 
TCOON,ioos:station:TCOON:146:1,2017-04-11T02:30:00Z,28.1324,-97.0345,0.0,4.8,199.0,6.4,'1111122,1111122,1111122' 
TCOON,ioos:station:TCOON:146:1,2017-04-11T03:30:00Z,28.1324,-97.0345,0.0,5.3,203.0,7.0,'1111122,1111122,1111122' 
TCOON,ioos:station:TCOON:146:1,2017-04-11T04:30:00Z,28.1324,-97.0345,0.0,4.5,202.0,6.2,'1111122,1111122,1111122' 
TCOON,ioos:station:TCOON:146:1,2017-04-11T05:30:00Z,28.1324,-97.0345,0.0,4.4,207.0,5.6,'1111122,1111122,1111122' 
TCOON,ioos:station:TCOON:146:1,2017-04-11T06:30:00Z,28.1324,-97.0345,0.0,4.6,213.0,5.7,'1111122,1111122,1111122' 
TCOON,ioos:station:TCOON:146:1,2017-04-11T07:30:00Z,28.1324,-97.0345,0.0,4.2,188.0,5.6,'1111122,1111122,1111122' 
TCOON,ioos:station:TCOON:146:1,2017-04-11T08:30:00Z,28.1324,-97.0345,0.0,4.1,189.0,4.9,'1111122,1111122,1111122' 
TCOON,ioos:station:TCOON:146:1,2017-04-11T09:30:00Z,28.1324,-97.0345,0.0,5.1,187.0,6.5,'1111122,1111122,1111122' 
TCOON,ioos:station:TCOON:146:1,2017-04-11T10:30:00Z,28.1324,-97.0345,0.0,4.4,179.0,5.5,'1111122,1111122,1111122' 